GS1960 Weather Reports


time (UTC)temp
F
wind
direction
speed
knots
gust
knots
rain 1hr
in
rain 24hr
in
rain mn
in
humidity
%
barometer
mb
20260506233016 59 103 2.6 6.1 0.00 1.07 0.00 79 1012.4
20260506231522 59 70 2.6 7.8 0.00 1.07 0.00 79 1012.3
20260506230007 60 77 3.5 9.6 0.00 1.07 0.00 79 1012.2
20260506224506 60 101 2.6 7.8 0.00 1.07 0.00 79 1012.2
20260506223016 60 78 2.6 7.8 0.00 1.07 0.00 79 1012.3
20260506221517 60 93 1.7 9.6 0.00 1.07 0.00 79 1012.3
20260506220022 60 102 6.1 9.6 0.00 1.07 0.00 79 1012.4
20260506214525 60 81 2.6 8.7 0.00 1.07 1.07 80 1012.3
20260506213009 60 68 3.5 8.7 0.00 1.07 1.07 80 1012.2
20260506211519 60 79 2.6 7.8 0.00 1.07 1.07 80 1012.4
20260506210018 60 63 3.5 7.0 0.00 1.07 1.07 80 1012.3
20260506204521 60 86 2.6 7.8 0.00 1.07 1.07 80 1012.2
20260506203034 60 67 1.7 7.8 0.00 1.07 1.07 80 1012.1
20260506201508 60 88 2.6 7.8 0.00 1.07 1.07 81 1012.0
20260506200012 60 84 2.6 5.2 0.00 1.07 1.07 81 1011.9
20260506194519 60 116 1.7 4.3 0.00 1.07 1.07 81 1011.6
20260506193020 60 128 3.5 8.7 0.00 1.07 1.07 82 1011.3
20260506191524 60 80 3.5 10.4 0.00 1.07 1.07 81 1011.3
20260506190007 60 77 4.3 11.3 0.00 1.07 1.07 81 1011.0
20260506184511 60 72 3.5 10.4 0.00 1.07 1.07 81 1010.8
20260506183016 60 55 6.1 12.2 0.00 1.07 1.07 82 1010.6
20260506181522 60 73 4.3 13.9 0.00 1.07 1.07 81 1010.2
20260506180029 60 96 4.3 13.0 0.00 1.07 1.07 81 1010.0
20260506174509 60 91 6.1 13.9 0.00 1.07 1.07 79 1009.8
20260506173019 60 128 5.2 8.7 0.00 1.07 1.07 79 1009.9
20260506171503 60 71 7.0 13.0 0.00 1.07 1.07 80 1009.8
20260506170003 60 132 4.3 12.2 0.00 1.07 1.07 79 1009.7
20260506164504 61 113 6.1 10.4 0.00 1.07 1.07 78 1009.7
20260506163004 61 83 5.2 14.8 0.00 1.07 1.07 78 1009.8
20260506161503 61 122 5.2 10.4 0.00 1.07 1.07 78 1009.9
20260506160004 61 75 3.5 11.3 0.00 1.07 1.07 79 1009.8
20260506154504 62 96 3.5 8.7 0.00 1.07 1.07 78 1009.8
20260506153003 62 79 4.3 14.8 0.00 1.07 1.07 78 1009.8
20260506151503 62 108 2.6 9.6 0.00 1.07 1.07 77 1009.8
20260506150005 62 109 4.3 17.4 0.00 1.07 1.07 76 1009.9
20260506144504 62 56 7.0 14.8 0.00 1.07 1.07 74 1009.7
20260506143004 62 74 6.1 14.8 0.00 1.07 1.07 79 1009.6
20260506141502 62 80 7.8 16.5 0.00 1.07 1.07 78 1009.8
20260506140004 62 87 4.3 11.3 0.00 1.07 1.07 78 1009.8
20260506134504 63 82 6.1 15.6 0.00 1.07 1.07 77 1009.9
20260506130006 65 169 6.1 16.5 0.00 1.07 1.07 73 1010.0
20260506124507 66 79 4.3 12.2 0.00 1.07 1.07 76 1009.8
20260506123005 65 72 7.0 11.3 0.00 1.07 1.07 76 1009.6
20260506120014 65 96 6.1 13.0 0.00 1.07 1.07 79 1009.4
20260506114506 64 82 6.1 15.6 0.00 1.07 1.07 82 1009.2
20260506113010 63 74 7.0 20.9 0.00 1.07 1.07 82 1009.3
20260506111505 63 89 5.2 14.8 0.00 1.07 1.07 82 1009.3
20260506104508 64 97 5.2 13.0 0.00 1.07 1.07 79 1009.3
20260506103009 64 95 7.8 16.5 0.00 1.07 1.07 79 1009.4
20260506101521 64 80 6.1 15.6 0.00 1.07 1.07 80 1009.2
20260506100010 64 71 7.0 14.8 0.00 1.08 1.07 79 1009.1
20260506094522 64 85 5.2 13.9 0.00 1.13 1.07 79 1009.1
20260506093014 64 91 7.0 14.8 0.00 1.15 1.07 79 1009.0
20260506091514 64 64 7.8 12.2 0.00 1.16 1.07 80 1008.9
20260506090014 63 140 5.2 9.6 0.00 1.17 1.07 84 1008.8
20260506081506 61 131 2.6 7.8 0.00 1.17 1.07 87 1008.7
20260506073015 58 260 0.0 0.9 0.14 1.17 1.07 91 1008.5
20260506071509 57 306 0.0 4.3 0.15 1.17 1.07 90 1008.5
20260506061508 55 289 0.9 1.7 0.00 1.03 0.92 92 1007.9
20260506044545 54 297 0.0 1.7 0.01 1.46 0.92 92 1008.9
20260506043014 54 311 0.0 1.7 0.01 1.54 0.92 92 1009.0
20260506041512 54 293 0.0 0.0 0.00 1.67 0.91 92 1009.6
20260506040007 54 293 0.9 1.7 0.00 1.90 0.91 92 1009.6
20260506034530 55 274 0.0 0.9 0.04 2.00 0.91 92 1009.6
20260506033016 55 278 0.0 0.9 0.05 2.07 0.91 92 1009.5
20260506031517 55 282 1.7 5.2 0.06 2.13 0.91 92 1009.6
20260506030018 55 352 0.0 2.6 0.16 2.18 0.91 92 1010.0
20260506024511 56 89 0.0 1.7 0.22 2.17 0.87 92 1010.2
20260506023016 56 84 0.0 0.9 0.32 2.19 0.86 92 1010.4
20260506021518 56 84 0.0 0.0 0.42 2.20 0.85 92 1010.5
20260506020020 56 84 0.0 2.6 0.54 2.13 0.75 91 1011.1
20260506013009 57 264 0.0 2.6 0.54 1.99 0.54 92 1011.2
20260506011517 57 105 0.0 1.7 0.43 1.91 0.43 91 1010.9
20260506010022 57 82 0.0 2.6 0.21 1.73 0.21 91 1011.0
20260506004533 57 263 0.0 0.0 0.00 1.54 0.00 91 1011.1
20260506001513 57 271 0.0 0.9 0.00 1.54 0.00 91 1011.2
20260506000022 57 279 0.0 0.9 0.00 1.54 0.00 91 1011.3
20260505234533 57 302 0.0 1.7 0.00 1.54 0.00 91 1011.7